EW1015 Weather Reports


Display with metric or nautical units.
time (UTC)temp
F
wind
direction
speed
MPH
gust
MPH
rain 1hr
in
rain 24hr
in
rain mn
in
humidity
%
barometer
mb
20260507210054 52 35 4.0 9.0 0.00 0.01 0.00 58 1011.4
20260507204548 53 13 3.0 9.0 0.00 0.01 0.00 59 1011.4
20260507203046 51 35 4.0 11.0 0.00 0.01 0.00 59 1011.6
20260507201540 51 336 5.0 11.0 0.00 0.01 0.00 58 1011.5
20260507200034 52 31 4.0 10.0 0.00 0.01 0.00 58 1011.5
20260507194554 52 23 4.0 9.0 0.00 0.01 0.00 59 1011.7
20260507193029 53 11 5.0 10.0 0.00 0.01 0.00 55 1011.7
20260507191530 52 255 3.0 10.0 0.00 0.01 0.00 55 1011.8
20260507190021 52 300 7.0 11.0 0.00 0.01 0.00 56 1012.1
20260507184514 51 5 3.0 9.0 0.00 0.01 0.00 55 1012.1
20260507183015 52 286 6.0 10.0 0.00 0.01 0.00 54 1012.3
20260507181505 50 313 4.0 11.0 0.00 0.01 0.00 57 1012.6
20260507174602 51 287 8.0 12.0 0.00 0.01 0.00 56 1012.5
20260507173127 51 331 5.0 14.0 0.00 0.01 0.00 58 1012.6
20260507171554 51 305 4.0 10.0 0.00 0.01 0.00 58 1012.7
20260507170048 51 350 3.0 13.0 0.00 0.01 0.00 58 1012.8
20260507164548 51 302 6.0 15.0 0.00 0.01 0.00 60 1013.1
20260507163035 51 319 10.0 16.0 0.00 0.01 0.00 60 1013.2
20260507161531 51 294 6.0 16.0 0.00 0.01 0.00 57 1013.3
20260507160028 49 323 5.0 10.0 0.00 0.01 0.00 52 1013.5
20260507154521 49 311 5.0 10.0 0.00 0.02 0.00 53 1013.7
20260507153016 49 336 5.0 9.0 0.00 0.02 0.00 53 1013.9
20260507151512 47 360 2.0 6.0 0.00 0.02 0.00 50 1014.1
20260507150008 47 27 4.0 5.0 0.00 0.02 0.00 48 1014.3
20260507144503 46 200 1.0 4.0 0.00 0.03 0.00 49 1014.3
20260507143125 45 93 3.0 12.0 0.00 0.03 0.00 43 1014.3
20260507141631 45 64 3.0 6.0 0.00 0.03 0.00 38 1014.5
20260507140050 44 5 2.0 5.0 0.00 0.03 0.00 30 1014.8
20260507134546 44 309 3.0 8.0 0.00 0.04 0.00 11 1014.8
20260507133041 45 41 3.0 9.0 0.00 0.04 0.00 14 1014.8
20260507131539 45 53 4.0 7.0 0.00 0.04 0.00 4 1014.8
20260507130032 44 41 2.0 5.0 0.00 0.04 0.00 1 1014.9
20260507124527 44 345 0.0 1.0 0.00 0.08 0.00 1 1014.6
20260507123024 44 325 1.0 4.0 0.00 0.08 0.00 1 1014.8
20260507121521 43 240 0.0 3.0 0.00 0.08 0.00 1 1014.6
20260507120036 43 134 1.0 3.0 0.00 0.08 0.00 1 1014.6
20260507114517 41 247 0.0 4.0 0.00 0.12 0.00 1 1014.6
20260507113033 40 215 1.0 6.0 0.00 0.12 0.00 1 1014.7
20260507111509 39 260 2.0 3.0 0.00 0.12 0.00 1 1014.6
20260507110010 37 180 0.0 3.0 0.00 0.12 0.00 1 1014.2
20260507104602 36 151 0.0 1.0 0.00 0.21 0.00 1 1014.4
20260507103056 35 151 0.0 0.0 0.00 0.21 0.00 1 1014.4
20260507101559 35 151 0.0 1.0 0.00 0.21 0.00 1 1014.3
20260507100047 35 151 0.0 0.0 0.00 0.21 0.00 1 1014.4
20260507094550 35 151 0.0 0.0 0.00 0.27 0.00 1 1014.0
20260507093039 35 151 0.0 2.0 0.00 0.27 0.00 1 1014.0
20260507091534 35 151 0.0 1.0 0.00 0.27 0.00 1 1014.2
20260507090030 36 151 0.0 2.0 0.00 0.27 0.00 1 1014.2
20260507084525 36 151 0.0 1.0 0.00 0.33 0.00 1 1014.1
20260507083022 38 151 1.0 3.0 0.00 0.33 0.00 1 1014.0
20260507081517 38 221 0.0 1.0 0.00 0.33 0.00 1 1014.2
20260507080012 39 221 1.0 2.0 0.00 0.33 0.00 1 1014.3
20260507074508 38 294 0.0 0.0 0.00 0.44 0.00 1 1014.5
20260507073004 39 294 0.0 1.0 0.00 0.44 0.00 1 1014.3
20260507071600 40 294 0.0 1.0 0.00 0.44 0.00 1 1014.3
20260507070056 41 294 0.0 2.0 0.00 0.44 0.00 1 1014.3
20260507064608 42 266 0.0 2.0 0.00 0.53 0.00 1 1014.0
20260507063056 42 256 1.0 2.0 0.00 0.53 0.00 13 1014.1
20260507061543 42 267 2.0 6.0 0.00 0.53 0.00 16 1014.2
20260507060037 42 291 3.0 5.0 0.00 0.53 0.00 16 1014.5
20260507054535 42 305 2.0 6.0 0.00 0.63 0.00 8 1014.6
20260507053034 43 296 2.0 6.0 0.00 0.63 0.00 1 1014.5
20260507051525 43 300 3.0 8.0 0.00 0.63 0.00 1 1014.6
20260507050021 43 306 5.0 9.0 0.00 0.63 0.00 1 1014.7
20260507044516 43 281 4.0 9.0 0.00 0.72 0.00 1 1014.8
20260507043012 43 323 4.0 9.0 0.00 0.72 0.00 1 1014.5
20260507041507 44 328 4.0 9.0 0.00 0.72 0.00 1 1014.5
20260507040007 43 304 4.0 11.0 0.00 0.72 0.00 1 1014.4
20260507034619 43 270 5.0 9.0 0.00 0.77 0.72 1 1014.2
20260507033105 44 283 5.0 8.0 0.00 0.77 0.72 1 1014.1
20260507031548 44 290 3.0 8.0 0.00 0.77 0.72 1 1013.9
20260507030044 44 279 4.0 8.0 0.00 0.77 0.72 1 1013.9
20260507024551 44 292 4.0 10.0 0.00 0.87 0.72 1 1013.9
20260507023035 45 303 5.0 9.0 0.00 0.87 0.72 1 1013.9
20260507021531 45 263 5.0 10.0 0.00 0.87 0.72 1 1013.9
20260507020026 45 306 5.0 10.0 0.00 0.87 0.72 1 1014.1
20260507014525 45 330 5.0 12.0 0.00 0.97 0.72 1 1013.7
20260507013017 46 321 8.0 13.0 0.01 0.97 0.72 1 1013.7
20260507011513 47 317 8.0 12.0 0.01 0.97 0.72 1 1013.7
20260507010024 47 290 9.0 13.0 0.01 0.97 0.72 1 1013.5
20260507004503 48 279 7.0 11.0 0.01 1.04 0.72 1 1013.1
20260507003100 48 273 4.0 9.0 0.00 1.03 0.71 1 1012.9
20260507001610 48 188 0.0 2.0 0.00 1.03 0.71 1 1012.4
20260507000050 48 135 0.0 2.0 0.00 1.03 0.71 1 1012.4
20260506234555 48 135 0.0 1.0 0.00 1.05 0.71 1 1012.4
20260506233043 48 135 0.0 2.0 0.00 1.05 0.71 1 1012.1
20260506231540 49 135 0.0 1.0 0.00 1.05 0.71 1 1012.2
20260506224612 48 44 0.0 2.0 0.00 1.05 0.71 1 1011.9
20260506223058 48 83 0.0 2.0 0.00 1.05 0.71 1 1011.8
20260506221548 48 159 1.0 4.0 0.00 1.05 0.71 1 1011.5
20260506220056 48 96 1.0 3.0 0.00 1.05 0.71 1 1011.8
20260506214540 48 329 1.0 3.0 0.00 1.05 0.71 1 1011.8
20260506213035 48 355 1.0 3.0 0.00 1.05 0.71 1 1011.8
20260506211531 48 355 1.0 3.0 0.00 1.05 0.71 1 1011.6